Weather History for KAUS - January, 2013

Change the Weather History Date:

Thursday, January 3, 2013

  Actual Average Record
Temperature  
Mean Temperature 37 °F 49 °F  
Max Temperature 47 °F 62 °F 86 °F (2006)
Min Temperature 26 °F 36 °F 17 °F (2002)
Degree Days  
Heating Degree Days 28 16  
Month to date heating degree days 71 48  
Since 1 July heating degree days 685 795  
Cooling Degree Days 0 0  
Month to date cooling degree days 0 0  
Year to date cooling degree days 0 0  
Moisture  
Dew Point 28 °F    
Average Humidity 71    
Maximum Humidity 92    
Minimum Humidity 49    
Precipitation  
Precipitation T in 0.08 in 0.87 in (2007)
Month to date precipitation 0.19 0.23  
Year to date precipitation 0.19 0.23  
Snow  
Snow 0.00 in - - ()
Month to date snowfall 0.0  
Since 1 July snowfall 0.0  
Snow Depth 0.00 in    
Sea Level Pressure  
Sea Level Pressure 30.42 in    
Wind  
Wind Speed 8 mph (North)    
Max Wind Speed 18 mph    
Max Gust Speed 21 mph    
Visibility 10 miles    
Events Rain    
T = Trace of Precipitation, MM = Missing Value Source: NWS Daily Summary

Daily Weather History Graph

Daily Weather History Graph

Search for Another Location

Airport or City:

Trip Planner

Search our weather history database for the weather conditions in past years. The results will help you decide how hot, cold, wet, or windy it might be!

Date:

Astronomy

Jan. 03, 2013 Rise Set
Actual Time 7:27 AM CST 5:43 PM CST
Civil Twilight 7:01 AM CST 6:09 PM CST
Nautical Twilight 6:31 AM CST 6:39 PM CST
Astronomical Twilight 6:02 AM CST 7:08 PM CST
Moon 11:49 PM CST (1/3) 11:07 AM CST (1/3)
Length of Visible Light 11h 08m
Length of Day
10h 15m
Waning Gibbous, 65% of the Moon is Illuminated
Jan 3
Waning Gibbous
Jan 4
Last Quarter
Jan 11
New
Jan 18
First Quarter
Jan 26
Full

Hourly Weather History & Observations

Time (CST) Temp. Windchill Dew Point Humidity Pressure Visibility Wind Dir Wind Speed Gust Speed Precip Events Conditions
12:53 AM 32.0 °F 27.5 °F 26.6 °F 80% 30.33 in 10.0 mi NNW 4.6 mph - N/A   Partly Cloudy
1:53 AM 27.0 °F 19.5 °F 24.1 °F 89% 30.36 in 10.0 mi North 6.9 mph - N/A   Scattered Clouds
2:53 AM 32.0 °F 28.7 °F 28.0 °F 85% 30.37 in 10.0 mi North 3.5 mph - N/A   Mostly Cloudy
3:53 AM 30.9 °F 27.5 °F 27.0 °F 85% 30.37 in 10.0 mi North 3.5 mph - N/A   Scattered Clouds
4:53 AM 34.0 °F 29.8 °F 28.9 °F 82% 30.38 in 10.0 mi NNW 4.6 mph - N/A   Mostly Cloudy
5:53 AM 36.0 °F - 28.0 °F 73% 30.40 in 10.0 mi Calm Calm - N/A   Mostly Cloudy
6:53 AM 36.0 °F 31.1 °F 30.0 °F 79% 30.41 in 10.0 mi NNW 5.8 mph - N/A   Overcast
7:53 AM 36.0 °F 32.1 °F 28.9 °F 76% 30.44 in 9.0 mi NNW 4.6 mph - N/A   Overcast
8:53 AM 37.9 °F 32.1 °F 28.0 °F 68% 30.45 in 9.0 mi NNE 8.1 mph - N/A   Mostly Cloudy
9:53 AM 41.0 °F 34.3 °F 28.0 °F 60% 30.47 in 10.0 mi North 11.5 mph - N/A   Mostly Cloudy
10:53 AM 43.0 °F 38.2 °F 27.0 °F 53% 30.47 in 10.0 mi North 8.1 mph - N/A   Overcast
11:53 AM 44.1 °F 38.6 °F 27.0 °F 51% 30.46 in 10.0 mi NNE 10.4 mph - N/A   Overcast
12:53 PM 45.0 °F 38.2 °F 28.9 °F 53% 30.42 in 10.0 mi North 15.0 mph - 0.00 in Rain Light Rain
1:53 PM 46.0 °F 39.9 °F 28.9 °F 51% 30.41 in 10.0 mi North 13.8 mph - 0.00 in   Overcast
2:53 PM 46.9 °F - 28.9 °F 50% 30.40 in 10.0 mi North 13.8 mph - N/A   Overcast
3:53 PM 46.9 °F - 28.9 °F 50% 30.41 in 10.0 mi North 11.5 mph - N/A   Overcast
4:53 PM 46.0 °F 40.6 °F 28.0 °F 50% 30.41 in 10.0 mi North 11.5 mph - N/A   Overcast
5:53 PM 45.0 °F 40.6 °F 28.9 °F 53% 30.43 in 10.0 mi NNE 8.1 mph - N/A   Overcast
6:53 PM 45.0 °F 39.3 °F 28.9 °F 53% 30.44 in 10.0 mi NNE 11.5 mph - N/A   Overcast
7:53 PM 45.0 °F 40.6 °F 30.0 °F 56% 30.44 in 10.0 mi North 8.1 mph - N/A   Overcast
8:53 PM 45.0 °F 41.8 °F 30.0 °F 56% 30.43 in 10.0 mi NNE 5.8 mph - N/A   Overcast
9:53 PM 45.0 °F 40.6 °F 30.0 °F 56% 30.43 in 10.0 mi North 8.1 mph - N/A   Overcast
10:53 PM 45.0 °F 40.6 °F 30.0 °F 56% 30.43 in 10.0 mi NNE 8.1 mph - N/A   Overcast
11:53 PM 45.0 °F 39.7 °F 30.0 °F 56% 30.41 in 10.0 mi NNE 10.4 mph - N/A   Overcast